Weather reports worldwide

Advertisment
Chivenor, United Kingdom (3707): temperature & dewpoint: 25.10.2020 04:00:00 - 31.10.2020 04:00:00 (GMT)Chivenor, United Kingdom (3707): temperature -20cm & temperature -100cm: 25.10.2020 04:00:00 - 31.10.2020 04:00:00 (GMT)Chivenor, United Kingdom (3707): reduced air pressure: 25.10.2020 04:00:00 - 31.10.2020 04:00:00 (GMT)Chivenor, United Kingdom (3707): visibility: 25.10.2020 04:00:00 - 31.10.2020 04:00:00 (GMT)Chivenor, United Kingdom (3707): precipitation: 25.10.2020 04:00:00 - 31.10.2020 04:00:00 (GMT)
Date & Time tt [°C] td [°C] tt -20cm [°C] tt -100cm [°C] ppp [hPa] vv [km] rr [mm]
31.10.2020 04:00:00 14,8 12,5 - - 1009,0 29 0,0
31.10.2020 03:00:00 14,6 11,8 - - 1010,7 45 0,2
31.10.2020 02:00:00 14,6 12,0 - - 1012,1 50 0,0
31.10.2020 01:00:00 14,7 12,8 - - 1012,8 50 0,0
31.10.2020 00:00:00 14,7 13,3 - - 1013,6 45 0,0
30.10.2020 23:00:00 14,7 13,4 - - 1014,2 45 0,4
30.10.2020 22:00:00 14,6 13,4 - - 1015,3 35 0,2
30.10.2020 21:00:00 14,5 13,4 - - 1015,7 50 0,0
30.10.2020 20:00:00 14,4 13,5 - - 1015,9 45 0,0
30.10.2020 19:00:00 14,4 13,9 - - 1016,5 50 0,0
30.10.2020 18:00:00 14,2 13,9 - - 1016,4 50 0,4
30.10.2020 17:00:00 13,6 13,2 - - 1016,3 2,1 0,2
30.10.2020 16:00:00 13,6 13,2 - - 1016,4 2,3 0,0
30.10.2020 15:00:00 13,6 13,2 - - 1016,3 2,0 0,2
30.10.2020 14:00:00 14,6 14,1 - - 1015,9 8 0,4
30.10.2020 13:00:00 14,4 13,9 - - 1016,0 9 0,4
30.10.2020 12:00:00 14,5 13,9 - - 1015,8 4,9 0,4
30.10.2020 11:00:00 14,6 14,0 - - 1015,4 3,8 0,0
30.10.2020 10:00:00 14,7 13,9 - - 1014,9 5 0,2
30.10.2020 09:00:00 14,6 13,6 12,7 13,2 1014,1 5 0,4
30.10.2020 08:00:00 14,5 13,4 - - 1013,5 3,9 0,2
30.10.2020 07:00:00 14,4 13,3 - - 1013,0 15 0,0
30.10.2020 06:00:00 14,3 13,3 - - 1012,6 27 0,0
30.10.2020 05:00:00 14,3 13,2 - - 1012,2 4,6 0,0
30.10.2020 04:00:00 14,6 12,8 - - 1012,2 15 0,0
30.10.2020 03:00:00 15,2 12,6 - - 1012,3 8 0,0
30.10.2020 02:00:00 14,9 12,6 - - 1012,4 15 0,0
30.10.2020 01:00:00 14,7 12,4 - - 1012,3 14 0,0
30.10.2020 00:00:00 14,8 12,3 - - 1012,2 15 0,0
29.10.2020 23:00:00 14,6 12,2 - - 1012,2 8 0,0
29.10.2020 22:00:00 15,2 11,7 - - 1011,8 22 0,0
29.10.2020 21:00:00 14,9 11,6 - - 1012,0 23 0,0
29.10.2020 20:00:00 14,9 11,6 - - 1011,7 17 0,0
29.10.2020 19:00:00 14,8 11,5 - - 1011,8 17 0,0
29.10.2020 18:00:00 14,6 11,9 - - 1011,4 12 0,0
29.10.2020 17:00:00 14,8 12,2 - - 1011,3 13 0,0
29.10.2020 16:00:00 14,7 12,3 - - 1011,4 11 0,0
29.10.2020 15:00:00 15,0 12,1 - - 1011,3 11 0,0
29.10.2020 14:00:00 15,1 12,1 - - 1011,2 12 0,0
29.10.2020 13:00:00 14,9 12,2 - - 1011,4 12 0,0
29.10.2020 12:00:00 14,5 12,3 - - 1011,5 14 0,0
29.10.2020 11:00:00 14,4 12,3 - - 1011,7 15 0,0
29.10.2020 10:00:00 13,9 11,9 - - 1011,5 14 0,0
29.10.2020 09:00:00 13,6 11,7 11,7 13,2 1011,3 12 0,2
29.10.2020 08:00:00 13,1 11,7 - - 1011,2 12 0,6
29.10.2020 07:00:00 12,4 11,1 - - 1010,8 11 0,8
29.10.2020 06:00:00 12,1 10,8 - - 1011,3 9 0,6
29.10.2020 05:00:00 12,1 10,5 - - 1011,2 8 0,4
29.10.2020 04:00:00 12,1 10,0 - - 1010,8 11 0,0
29.10.2020 03:00:00 11,9 9,3 - - 1010,9 10 0,2
29.10.2020 02:00:00 10,9 9,0 - - 1011,1 12 0,0
29.10.2020 01:00:00 11,2 8,3 - - 1010,4 16 0,0
29.10.2020 00:00:00 9,6 8,5 - - 1010,1 15 2,0
28.10.2020 23:00:00 9,3 7,3 - - 1009,3 22 1,4
28.10.2020 22:00:00 11,2 6,5 - - 1008,2 10 0,0
28.10.2020 21:00:00 10,2 6,7 - - 1007,5 12 0,0
28.10.2020 20:00:00 10,7 6,0 - - 1006,7 25 0,0
28.10.2020 19:00:00 9,2 6,5 - - 1005,8 5 1,0
28.10.2020 18:00:00 11,2 6,7 - - 1004,4 21 0,0
28.10.2020 17:00:00 9,6 6,4 - - 1003,7 30 0,2
28.10.2020 16:00:00 11,5 6,4 - - 1002,7 24 0,0
28.10.2020 15:00:00 11,7 7,6 - - 1002,1 17 0,0
28.10.2020 14:00:00 11,8 6,5 - - - - 0,0
28.10.2020 13:00:00 10,9 7,6 - - - - 0,2
28.10.2020 12:00:00 9,1 8,3 - - - - -
28.10.2020 11:00:00 12,8 7,8 - - - - 0,0
28.10.2020 10:00:00 11,1 7,9 - - - - 0,0
28.10.2020 09:00:00 10,6 7,2 11,7 13,4 1000,8 22 0,0
28.10.2020 08:00:00 10,2 6,6 - - 1000,5 21 0,0
28.10.2020 07:00:00 9,8 7,0 - - 999,7 20 0,0
28.10.2020 06:00:00 10,6 7,0 - - 999,8 21 0,0
28.10.2020 05:00:00 9,3 6,6 - - 999,6 22 0,0
28.10.2020 04:00:00 9,0 7,2 - - 999,4 26 0,0
28.10.2020 03:00:00 8,5 6,4 - - 999,4 26 0,0
28.10.2020 02:00:00 9,1 7,0 - - 999,7 21 0,6
28.10.2020 01:00:00 8,3 6,8 - - 999,2 22 1,0
28.10.2020 00:00:00 8,7 6,8 - - 999,1 22 0,6
27.10.2020 23:00:00 8,5 5,9 - - 999,3 45 0,2
27.10.2020 22:00:00 8,8 6,1 - - 999,2 35 0,2
27.10.2020 21:00:00 9,7 6,3 - - 998,9 30 0,0
27.10.2020 20:00:00 9,5 6,4 - - 998,5 29 0,4
27.10.2020 19:00:00 11,7 6,5 - - 998,0 16 0,0
27.10.2020 18:00:00 12,0 6,6 - - 997,3 16 0,0
27.10.2020 17:00:00 12,1 6,8 - - 996,7 16 0,0
27.10.2020 16:00:00 12,7 7,8 - - 995,9 13 0,0
27.10.2020 15:00:00 12,8 7,3 - - 995,5 14 0,0
27.10.2020 14:00:00 12,4 9,5 - - 995,0 26 0,0
27.10.2020 13:00:00 13,1 10,3 - - 994,1 30 0,6
27.10.2020 12:00:00 13,1 11,2 - - 993,9 1,7 0,0
27.10.2020 11:00:00 13,0 12,1 - - 993,8 4,8 0,2
27.10.2020 10:00:00 13,6 12,8 - - 992,9 12 0,2
27.10.2020 09:00:00 12,4 11,3 11,9 13,5 993,2 25 0,2
27.10.2020 08:00:00 11,3 10,4 - - 994,3 8 0,0
27.10.2020 07:00:00 10,0 9,1 - - 995,3 8 0,0
27.10.2020 06:00:00 9,5 8,4 - - 996,9 14 0,2
27.10.2020 05:00:00 9,5 7,8 - - 998,3 12 0,2
27.10.2020 04:00:00 9,6 7,3 - - 999,1 35 0,4
27.10.2020 03:00:00 9,3 7,2 - - 1000,3 13 0,4
27.10.2020 02:00:00 10,1 6,6 - - 1001,3 40 0,0
27.10.2020 01:00:00 10,0 7,2 - - 1001,7 35 0,0
27.10.2020 00:00:00 9,6 7,6 - - 1002,1 28 0,0
26.10.2020 23:00:00 10,0 7,5 - - 1002,8 40 1,0
26.10.2020 22:00:00 11,0 6,9 - - 1002,9 50 0,0
26.10.2020 21:00:00 11,3 6,9 - - 1002,6 40 0,0
26.10.2020 20:00:00 11,3 6,8 - - 1002,3 30 0,0
26.10.2020 19:00:00 11,6 8,1 - - 1002,0 21 0,0
26.10.2020 18:00:00 11,5 7,9 - - 1001,7 26 0,0
26.10.2020 17:00:00 11,0 8,1 - - 1001,5 21 0,0
26.10.2020 16:00:00 12,0 7,3 - - 1001,2 24 0,0
26.10.2020 15:00:00 12,2 7,8 - - 1000,9 24 0,0
26.10.2020 14:00:00 12,9 8,2 - - 1000,5 13 0,0
26.10.2020 13:00:00 13,1 8,5 - - 1000,4 12 0,0
26.10.2020 12:00:00 13,0 7,7 - - 1000,1 14 0,0
26.10.2020 11:00:00 12,7 8,1 - - 999,6 15 0,0
26.10.2020 10:00:00 12,5 7,7 - - 998,8 20 0,0
26.10.2020 09:00:00 12,2 7,8 12,0 13,7 998,0 20 0,0
26.10.2020 08:00:00 11,6 8,8 - - 997,0 15 0,2
26.10.2020 07:00:00 10,0 7,9 - - 996,3 3,6 0,4
26.10.2020 06:00:00 10,5 8,1 - - 995,7 12 0,2
26.10.2020 05:00:00 11,2 7,3 - - 995,4 16 0,0
26.10.2020 04:00:00 11,1 7,4 - - 995,4 21 0,2
26.10.2020 03:00:00 10,5 9,3 - - 995,1 9 1,2
26.10.2020 02:00:00 10,6 7,5 - - 995,3 5 0,4
26.10.2020 01:00:00 10,6 6,8 - - 995,2 30 0,0
26.10.2020 00:00:00 10,2 7,1 - - 995,5 27 0,4
25.10.2020 23:00:00 8,5 6,6 - - 995,7 13 0,0
25.10.2020 22:00:00 8,5 6,7 - - 995,7 50 1,4
25.10.2020 21:00:00 7,9 6,1 - - 995,6 50 0,0
25.10.2020 20:00:00 8,7 7,2 - - 995,5 50 1,4
25.10.2020 19:00:00 8,8 7,1 - - 995,4 40 0,6
25.10.2020 18:00:00 9,5 6,7 - - 994,7 50 0,0
25.10.2020 17:00:00 9,4 7,2 - - 994,5 45 0,0
25.10.2020 16:00:00 10,1 6,6 - - 994,4 40 0,0
25.10.2020 15:00:00 10,7 7,1 - - 994,1 24 0,0
25.10.2020 14:00:00 12,7 6,3 - - 993,7 35 0,0
25.10.2020 13:00:00 11,3 8,2 - - 994,3 35 0,2
25.10.2020 12:00:00 10,0 6,3 - - 994,7 5 0,0
25.10.2020 11:00:00 12,7 8,3 - - 994,1 30 0,0
25.10.2020 10:00:00 11,2 8,4 - - 994,4 27 0,0
25.10.2020 09:00:00 9,0 7,1 12,2 13,7 995,0 40 2,0
25.10.2020 08:00:00 8,3 6,8 - - 994,4 45 0,0
25.10.2020 07:00:00 7,7 6,1 - - 994,0 11 1,6
25.10.2020 06:00:00 7,9 6,3 - - 994,9 6 0,8
25.10.2020 05:00:00 8,7 6,0 - - 993,6 30 0,0
25.10.2020 04:00:00 8,9 5,8 - - 993,8 50 0,0

tt = temperature
td = dewpoint
tt -20cm = temperature -20cm
tt -100cm = temperature -100cm
ppp = reduced air pressure
vv = visibility
rr = precipitation

Next stations